This demonstration page uses our WeatherBlox Daily Observations layout. Learn more.

38.89511, -77.03637

Hourly Observations for July 3, 2020

Temp ( °F °C ) Dew Point ( °F °C ) Humidity (%) Winds ( mph kmh ) Pressure ( in mb ) Visibility ( mi km ) Precip ( " mm )
12:52 am 00:52 Clear 80 26.7 66 18.9 62 62 SSW 5 7 29.88 1012 10 16.0934 0 0
1:52 am 01:52 Clear 79 26.1 65 18.3 62 62 WSW 3 6 29.88 1012 10 16.0934 0 0
2:52 am 02:52 Clear 79 26.1 65 18.3 62 62 Calm 29.88 1012 10 16.0934 0 0
3:52 am 03:52 Clear 79 26.1 63 17.2 58 58 SSW 3 6 29.88 1012 10 16.0934 0 0
4:52 am 04:52 Mostly Clear 77 25 63 17.2 62 62 NNW 3 6 29.88 1012 10 16.0934 0 0
5:52 am 05:52 Partly Cloudy 76 24.4 63 17.2 64 64 N 6 9 29.88 1012 10 16.0934 0 0
6:52 am 06:52 Mostly Sunny 78 25.6 64 17.8 62 62 NNW 6 9 29.89 1012 10 16.0934 0 0
7:52 am 07:52 Mostly Sunny 81 27.2 64 17.8 57 57 N 8 13 29.91 1013 10 16.0934 0 0
8:52 am 08:52 Sunny 84 28.9 64 17.8 51 51 NW 9 15 29.91 1013 10 16.0934 0 0
9:52 am 09:52 Sunny 87 30.6 65 18.3 48 48 NNW 10 17 29.92 1013 10 16.0934 0 0
10:52 am 10:52 Sunny 89 31.7 66 18.9 47 47 NNW 10 17 29.91 1013 10 16.0934 0 0
11:52 am 11:52 Mostly Sunny 92 33.3 65 18.3 41 41 VRB 7 11 29.9 1013 10 16.0934 0 0
12:52 pm 12:52 Partly Cloudy 94 34.4 63 17.2 36 36 NNW 8 13 29.9 1012 10 16.0934 0 0
1:52 pm 13:52 Partly Cloudy 95 35 65 18.3 37 37 NNE 3 6 29.89 1012 10 16.0934 0 0
2:52 pm 14:52 Mostly Sunny 96 35.6 65 18.3 36 36 VRB 3 6 29.88 1012 10 16.0934 0 0
3:52 pm 15:52 Mostly Sunny 96 35.6 65 18.3 36 36 NW 14 22 29.86 1011 10 16.0934 0 0
4:52 pm 16:52 Mostly Sunny 96 35.6 65 18.3 36 36 NW 5 7 29.85 1011 10 16.0934 0 0
5:52 pm 17:52 Mostly Sunny 95 35 64 17.8 36 36 NNW 13 20 29.84 1010 10 16.0934 0 0
6:52 pm 18:52 Mostly Sunny 94 34.4 63 17.2 36 36 NNW 12 19 29.83 1010 10 16.0934 0 0
7:52 pm 19:52 Partly Cloudy 92 33.3 63 17.2 38 38 NNW 8 13 29.83 1010 10 16.0934 0 0
8:52 pm 20:52 Partly Cloudy 90 32.2 64 17.8 42 42 W 5 7 29.84 1010 10 16.0934 0 0
9:52 pm 21:52 Mostly Clear 89 31.7 65 18.3 45 45 W 6 9 29.85 1011 10 16.0934 0 0
10:52 pm 22:52 Mostly Clear 88 31.1 65 18.3 46 46 W 8 13 29.86 1011 10 16.0934 0 0
11:52 pm 23:52 Partly Cloudy 86 30 67 19.4 53 53 N 12 19 29.87 1012 10 16.0934 0 0

Powered by AerisWeather